Location: *
(38.9555°S, 57.3572°E)
Time: 01:41:42
(UTC+00:00)

Cosmos 1340 Rocket - Pass Details

Date: 15 July 2020
Orbit: 528 x 559 km, 81.2° (Epoch: 06 August)

Event Time Altitude Azimuth Distance (km) Brightness Sun altitude
Rises 14:33:51 0° 338° (NNW) 2,663 6.9 -16.5°
Reaches altitude 10° 14:36:03 10° 331° (NNW) 1,782 6.0 -16.9°
Maximum altitude 14:39:49 44° 258° (WSW) 749 3.9 -17.6°
Drops below altitude 10° 14:43:39 10° 184° (S) 1,815 5.4 -18.3°
Enters shadow 14:45:33 - 178° (S) 2,574 6.1 -18.7°
